sat.trackr.live / text

‹ back to catalog

STARLINK-5908

NORAD 55951 · 2023-037AP

PAYLOAD ACTIVE UNKNOWN

§ Identity

Operator
Country
US
Launch date
2023-03-17
Launch site
AFWTR
Launch vehicle
Mass (kg)
RCS (m²)

Purposes: comms

External: N2YO · Heavens-Above · Gunter

§ Orbital elements

Epoch: 2026-05-25T02:56:41.752608Z

Period
96.11 min
Inclination
69.9998°
Eccentricity
0.0003156
Mean motion
14.98334445 rev/d
Perigee alt
569.8 km
Apogee alt
574.2 km
Semi-major
6,950.2 km
B*
-2.5870e-5
RAAN
91.5602°
Arg perigee
264.7116°
Mean anomaly
95.3683°
Rev number
17,543

§ Raw data

STARLINK-59081 55951U 23037AP  26145.12270547 -.00000402  00000+0 -25870-4 0  99992 55951  69.9998  91.5602 0003156 264.7116  95.3683 14.98334445175431

JSON: /api/v1/satellites/55951 · /tle

For live sub-satellite position, see the globe view (requires WebGL).

§ Visibility from observer

Set your observer location to see the next 7 days of passes ≥ 10°. The values pass through the URL so the page stays shareable.

No JS? Fill the form by hand. The geolocation button needs JavaScript.